Temp
16 15 16 16 15 15 14 14 14 14 14 14 14 14 14 14 15 15 14 14 15 14 14 13 13 13 13 13 13 12 12 11 12 12 12 11 12 12 12 13 13 13 13
15 16 16 17 16 16 15 15 14 14 14 14 14 13 14 14 14 14 14 14 14 14 13 13 13 13 12 13 12 12 12 11 11 11 11 10 11 12 12 12 12 13 12
15 15 16 16 17 17 15 15 14 14 14 14 14 13 13 14 14 14 14 14 13 14 13 13 12 12 12 11 11 11 11 11 10 9 9 10 10 12 12 12 12 12 12
16 15 16 16 16 17 15 15 14 14 14 14 14 14 13 13 13 13 13 14 13 13 13 13 13 12 12 10 11 10 9 9 8 9 9 9 8 10 12 12 12 12 11
19 16 14 16 16 16 15 14 14 14 14 14 14 14 13 13 13 13 13 13 13 12 12 13 12 12 12 11 11 10 9 9 9 8 8 8 7 8 11 12 12 12 11
18 17 14 14 16 16 15 14 14 14 14 14 13 13 13 13 13 13 13 13 12 12 11 12 12 12 12 10 9 10 10 9 8 8 8 7 7 8 10 12 12 11 11
15 15 15 15 16 17 17 14 14 14 14 14 14 13 13 13 13 13 13 13 13 12 12 11 11 12 12 11 11 11 10 10 9 9 8 8 8 9 11 11 12 11 11
15 15 15 15 15 16 16 14 13 14 14 14 13 13 13 13 13 13 13 13 12 12 11 12 11 12 11 11 11 10 10 10 9 9 9 8 8 8 10 12 12 11 11
15 15 15 16 15 16 17 14 13 14 13 14 14 13 13 15 16 14 13 12 12 12 11 12 11 12 11 11 10 11 10 10 10 9 9 8 8 8 9 11 12 11 11
15 15 15 15 15 16 16 18 16 15 14 14 13 14 14 16 17 16 14 13 12 12 12 12 13 12 12 11 11 11 10 10 10 9 9 9 8 8 8 9 11 11 11
15 15 15 15 14 14 17 18 16 14 13 13 13 13 13 14 14 15 15 13 12 12 12 12 13 13 12 11 11 11 11 10 9 9 9 9 9 8 8 9 11 11 11
14 15 14 14 14 14 14 16 17 15 13 12 13 12 12 13 14 14 13 14 13 13 12 11 11 13 13 13 12 11 10 10 10 9 9 9 9 9 9 8 8 10 9
14 14 13 14 14 14 16 16 16 15 12 13 13 13 12 13 13 14 13 13 14 14 13 12 11 13 13 13 12 11 11 10 10 9 10 9 9 9 9 8 7 8 8
14 14 14 13 14 13 15 16 15 15 14 14 13 13 12 13 13 13 13 13 13 13 13 12 11 12 13 12 12 12 10 10 10 9 10 9 9 9 8 8 8 7 7
15 14 13 13 12 13 13 15 17 17 15 15 14 12 14 13 13 13 13 13 12 13 13 12 11 11 12 12 12 12 11 10 9 10 9 9 9 9 9 8 8 7 7
15 14 13 13 12 12 13 13 14 15 15 15 16 16 13 13 12 13 13 12 12 12 12 13 12 12 11 11 12 12 11 10 9 10 9 9 9 8 8 9 8 8 7
13 13 13 13 12 12 12 13 13 15 13 13 15 13 14 12 12 13 12 12 12 11 11 12 11 11 11 10 11 11 11 10 10 10 10 10 9 9 8 8 8 8 7
13 13 13 13 12 12 12 12 13 13 13 13 14 14 12 13 12 12 12 12 11 11 11 10 10 10 10 10 10 10 10 10 10 10 10 10 10 9 9 8 8 8 8
12 12 12 12 12 12 12 12 12 12 13 13 14 13 12 12 11 11 11 11 11 11 11 10 10 10 10 10 10 10 10 10 10 10 10 9 10 10 9 9 8 8 8
12 13 12 12 12 12 12 12 12 12 12 12 12 11 11 11 10 10 10 10 10 10 10 10 10 10 9 10 9 9 9 10 10 9 9 9 9 10 9 9 9 8 8
9 9 10 11 11 11 11 11 11 11 11 11 11 10 10 10 10 10 10 10 10 9 9 9 9 9 9 9 9 9 9 9 9 9 9 9 9 9 9 9 8 8 8
5 6 7 9 9 10 9 9 10 10 10 10 10 9 9 9 9 9 9 8 9 9 9 8 8 9 9 9 9 9 9 9 8 9 9 8 9 9 9 9 9 9 8
1 2 2 4 6 8 7 8 8 8 8 8 8 8 8 8 8 8 8 8 8 9 9 8 7 8 9 9 9 9 8 8 9 8 9 8 9 8 8 8 8 9 8
-1 -0 -1 -0 1 2 3 4 5 5 6 4 6 7 7 8 7 8 8 8 8 8 7 7 8 8 8 9 8 8 9 9 8 8 8 8 7 8 7 7 8 8 8
-2 -2 -2 -2 -1 -1 1 1 2 2 1 1 2 3 3 4 5 5 5 6 6 5 5 6 7 8 8 8 8 8 8 8 8 7 7 7 6 5 5 5 5 7 8
-4 -3 -3 -4 -3 -2 -0 -1 0 0 -0 0 -0 0 1 2 2 2 3 4 3 4 4 4 4 4 4 6 7 8 7 7 8 6 6 5 5 4 -0 -1 1 1 2
Height
1504 1510 1511 1511 1512 1515 1515 1517 1518 1522 1525 1527 1529 1529 1531 1534 1536 1538 1537 1538 1538 1540 1541 1543 1544 1546 1547 1549 1550 1551 1551 1552 1553 1554 1555 1556 1558 1559 1561 1563 1565 1568 1570
1499 1504 1509 1511 1511 1512 1512 1514 1516 1517 1521 1523 1525 1527 1528 1530 1533 1535 1536 1535 1537 1538 1539 1541 1542 1543 1544 1543 1546 1547 1549 1550 1551 1552 1553 1555 1556 1558 1560 1562 1565 1567 1569
1495 1495 1501 1506 1509 1510 1509 1510 1513 1515 1517 1520 1522 1524 1525 1526 1527 1530 1533 1534 1534 1535 1537 1538 1540 1542 1541 1538 1542 1544 1546 1546 1548 1549 1552 1554 1555 1557 1559 1561 1564 1566 1568
1489 1491 1492 1497 1503 1507 1506 1507 1508 1511 1513 1516 1518 1520 1521 1523 1524 1526 1528 1530 1531 1532 1533 1534 1536 1538 1539 1533 1534 1537 1544 1543 1545 1546 1549 1552 1554 1555 1558 1560 1562 1565 1567
1480 1485 1487 1489 1494 1500 1502 1503 1503 1504 1509 1512 1514 1516 1518 1520 1521 1521 1523 1524 1527 1529 1529 1529 1531 1534 1535 1535 1534 1539 1539 1539 1542 1544 1546 1549 1552 1554 1556 1558 1561 1563 1566
1471 1476 1482 1483 1486 1490 1494 1496 1499 1501 1504 1507 1509 1512 1514 1516 1517 1518 1519 1520 1521 1524 1526 1525 1526 1528 1530 1531 1533 1533 1534 1536 1538 1541 1543 1546 1549 1551 1553 1556 1558 1561 1564
1465 1468 1471 1477 1477 1479 1483 1488 1492 1496 1499 1503 1506 1508 1509 1511 1512 1513 1517 1518 1518 1518 1518 1519 1519 1522 1523 1524 1526 1527 1531 1533 1536 1538 1540 1542 1545 1547 1549 1552 1555 1558 1561
1457 1460 1463 1468 1469 1471 1475 1482 1485 1489 1493 1495 1499 1503 1504 1507 1506 1508 1510 1513 1512 1514 1513 1513 1514 1515 1517 1519 1521 1522 1526 1530 1532 1534 1535 1539 1542 1544 1546 1548 1551 1555 1558
1449 1451 1454 1458 1464 1463 1465 1472 1478 1481 1485 1488 1491 1495 1498 1498 1500 1500 1502 1505 1506 1506 1508 1507 1508 1509 1511 1513 1514 1513 1519 1524 1527 1529 1531 1534 1537 1540 1542 1544 1547 1550 1555
1441 1442 1446 1449 1454 1455 1458 1462 1467 1473 1478 1479 1484 1486 1489 1492 1494 1495 1497 1498 1501 1500 1500 1501 1502 1502 1504 1506 1506 1509 1513 1518 1521 1524 1526 1529 1532 1535 1538 1540 1543 1546 1550
1432 1434 1436 1440 1443 1446 1450 1453 1459 1463 1467 1473 1473 1478 1483 1486 1489 1490 1490 1492 1495 1494 1493 1495 1496 1496 1498 1500 1501 1503 1505 1511 1515 1518 1520 1523 1526 1529 1531 1534 1537 1541 1544
1421 1424 1428 1430 1433 1438 1441 1445 1450 1454 1459 1464 1467 1470 1473 1477 1481 1484 1486 1488 1488 1488 1488 1489 1489 1490 1491 1493 1495 1498 1500 1503 1507 1511 1514 1517 1520 1523 1525 1528 1531 1534 1538
1409 1412 1418 1420 1423 1428 1432 1436 1441 1445 1451 1454 1461 1466 1472 1469 1474 1478 1480 1480 1483 1484 1484 1483 1482 1483 1485 1486 1487 1489 1492 1494 1497 1503 1506 1510 1514 1517 1519 1523 1526 1529 1532
1401 1403 1406 1410 1414 1419 1423 1427 1433 1439 1443 1446 1452 1458 1465 1464 1467 1470 1473 1476 1476 1476 1477 1477 1475 1475 1476 1477 1478 1482 1483 1483 1487 1493 1498 1503 1507 1510 1513 1517 1520 1523 1526
1391 1395 1396 1401 1405 1408 1414 1417 1423 1431 1434 1439 1443 1448 1451 1457 1459 1461 1465 1468 1469 1469 1467 1469 1470 1468 1468 1470 1471 1473 1474 1474 1478 1484 1490 1494 1499 1503 1506 1510 1514 1517 1520
1384 1387 1389 1393 1396 1400 1404 1410 1415 1422 1428 1433 1436 1440 1445 1450 1452 1454 1457 1460 1461 1462 1460 1463 1462 1463 1461 1461 1463 1465 1466 1467 1469 1475 1480 1484 1489 1493 1498 1502 1506 1510 1513
1376 1380 1383 1386 1388 1393 1397 1402 1408 1415 1422 1427 1431 1434 1436 1441 1444 1447 1450 1453 1453 1454 1453 1452 1456 1457 1458 1455 1456 1458 1459 1461 1463 1467 1472 1476 1480 1484 1488 1493 1497 1501 1505
1371 1374 1376 1380 1382 1387 1392 1396 1404 1410 1417 1421 1427 1430 1433 1434 1438 1441 1442 1444 1445 1446 1446 1444 1446 1447 1448 1450 1449 1449 1452 1453 1454 1457 1461 1466 1471 1474 1478 1482 1487 1492 1497
1368 1369 1369 1373 1377 1383 1385 1391 1399 1406 1411 1417 1422 1423 1428 1430 1433 1435 1437 1438 1439 1438 1438 1438 1437 1439 1438 1439 1440 1441 1442 1444 1446 1447 1451 1454 1460 1464 1468 1472 1477 1482 1487
1359 1359 1362 1368 1372 1376 1380 1386 1394 1399 1405 1410 1415 1418 1422 1424 1428 1426 1429 1431 1432 1432 1431 1430 1428 1429 1431 1431 1432 1433 1433 1434 1436 1437 1439 1442 1447 1453 1457 1463 1467 1472 1477
1356 1358 1362 1365 1368 1372 1378 1385 1389 1394 1399 1402 1406 1410 1414 1417 1418 1420 1422 1423 1424 1424 1424 1424 1421 1420 1420 1421 1421 1422 1423 1425 1425 1426 1429 1431 1435 1439 1444 1450 1455 1461 1466
1360 1361 1362 1367 1370 1375 1378 1382 1386 1392 1396 1400 1401 1405 1409 1410 1412 1415 1417 1416 1416 1415 1415 1415 1415 1414 1412 1411 1413 1412 1414 1414 1414 1416 1418 1422 1425 1426 1431 1437 1443 1450 1456
1372 1369 1370 1371 1370 1373 1380 1382 1387 1390 1392 1395 1398 1400 1402 1403 1405 1409 1411 1410 1409 1408 1406 1404 1404 1405 1404 1404 1404 1403 1402 1403 1403 1406 1408 1410 1414 1416 1419 1425 1431 1439 1445
1383 1378 1377 1375 1376 1377 1379 1381 1385 1390 1391 1395 1394 1394 1397 1398 1401 1402 1403 1403 1402 1401 1398 1397 1395 1394 1393 1394 1395 1394 1391 1391 1392 1395 1397 1398 1402 1406 1410 1416 1421 1426 1432
1386 1382 1389 1383 1388 1377 1382 1386 1388 1391 1398 1393 1391 1392 1394 1393 1395 1396 1396 1396 1395 1395 1392 1389 1388 1386 1385 1384 1384 1383 1383 1381 1380 1383 1387 1390 1392 1396 1400 1404 1409 1414 1421
1395 1390 1394 1400 1397 1396 1388 1396 1393 1395 1397 1394 1395 1394 1392 1393 1394 1391 1390 1391 1390 1390 1387 1384 1382 1380 1379 1377 1375 1373 1373 1372 1372 1374 1378 1382 1384 1389 1395 1400 1403 1405 1412
Wind_Speed
23 22 22 20 21 19 21 21 20 18 20 20 20 19 17 14 14 12 13 12 14 15 16 18 21 20 20 20 18 18 17 17 16 16 18 17 18 19 19 17 16 16 15
29 23 23 22 20 21 24 21 22 23 24 21 20 21 19 17 16 15 13 14 17 16 15 17 19 20 23 24 22 19 19 19 20 19 18 18 20 21 20 18 17 17 16
25 28 31 24 22 22 23 22 22 24 23 20 20 20 19 18 20 20 16 15 15 19 19 18 18 19 28 27 25 22 21 20 21 20 19 20 21 21 21 20 19 18 17
35 30 30 33 24 23 23 27 25 23 25 23 22 20 20 18 22 20 17 19 17 14 18 21 18 18 21 21 16 21 21 19 21 21 21 22 21 23 22 21 20 19 18
38 37 30 34 33 25 27 29 29 28 27 22 22 21 20 18 18 18 20 21 20 20 14 19 23 16 13 20 27 21 19 20 22 21 22 24 23 23 23 22 21 20 19
37 40 32 32 35 36 34 29 32 29 26 24 24 20 22 20 19 19 18 19 22 22 24 25 24 23 25 18 28 23 19 21 23 25 23 26 25 24 24 23 23 22 20
35 35 33 32 35 38 43 38 31 32 31 26 22 21 20 23 21 19 17 20 22 22 26 26 29 27 23 23 28 35 24 21 25 28 26 27 28 27 27 26 25 24 23
37 38 37 37 37 37 39 42 40 35 34 31 27 20 16 23 23 23 23 22 23 21 24 26 27 25 24 23 26 31 29 26 26 30 30 29 29 28 28 28 26 25 24
40 42 41 42 42 41 37 41 42 43 39 37 33 21 11 17 14 22 25 25 25 25 24 27 27 28 28 27 27 31 35 30 28 29 31 30 30 29 30 30 29 28 26
45 45 44 42 43 45 40 38 41 45 42 41 40 40 26 13 13 13 16 17 19 24 23 24 23 26 29 26 23 27 31 33 32 32 31 33 32 31 30 30 30 29 29
43 47 48 46 45 44 43 39 40 44 47 44 44 38 37 32 24 18 17 15 16 18 21 20 23 21 23 23 24 28 30 36 36 35 34 34 34 33 31 30 32 33 31
45 48 49 47 48 45 41 40 40 40 44 44 44 38 33 34 29 26 26 24 22 17 18 20 24 19 19 21 26 28 36 40 35 38 39 37 34 35 33 33 33 34 33
40 47 49 49 51 48 45 42 40 39 41 42 44 36 37 27 27 27 27 25 24 22 21 21 24 23 24 24 25 26 29 44 44 38 39 40 38 35 35 35 35 34 32
41 42 44 48 49 49 52 47 41 39 39 40 41 39 39 34 31 28 26 23 23 23 21 23 24 27 26 26 26 25 28 30 46 40 39 41 41 40 37 35 35 34 33
38 38 40 40 47 46 47 49 45 40 39 38 38 37 33 33 34 33 30 29 27 25 23 22 23 26 32 25 25 27 25 31 36 42 39 38 42 44 42 39 38 36 34
35 37 35 35 40 45 45 47 43 41 40 38 36 34 34 35 32 32 29 30 30 30 29 25 24 23 24 29 26 22 24 28 34 41 41 41 42 45 46 43 42 39 38
37 32 33 32 36 42 45 43 43 42 40 39 36 33 31 33 32 32 34 34 32 32 35 39 31 27 26 30 32 30 27 28 35 43 44 44 45 43 47 49 47 44 42
30 29 29 28 27 34 38 39 40 39 40 38 33 29 33 28 31 31 31 33 33 33 35 36 35 33 32 34 34 32 32 30 33 40 46 46 44 46 47 49 48 49 45
25 24 25 24 25 26 27 30 34 36 34 31 31 30 27 27 28 29 29 30 27 26 28 31 38 34 30 29 35 34 32 34 33 36 43 51 47 47 48 47 47 46 47
22 22 21 25 27 24 29 31 33 34 31 27 25 25 21 21 21 21 24 26 27 29 32 31 31 40 37 41 38 39 37 37 39 36 42 51 49 45 46 49 48 47 46
21 22 22 23 24 23 26 28 28 25 27 23 25 23 23 23 25 29 31 32 34 34 32 30 35 37 37 37 39 35 40 39 40 42 41 48 52 49 46 51 51 51 49
25 22 21 18 18 18 20 21 23 21 20 21 22 22 23 25 27 28 24 26 28 30 33 35 39 36 40 39 46 43 40 41 41 44 45 49 54 53 49 47 51 50 49
30 29 26 22 19 15 13 12 9 12 15 18 19 19 19 20 19 22 22 23 24 26 31 33 35 37 38 28 39 46 45 46 47 44 46 52 54 51 51 46 47 47 48
40 39 36 34 24 21 13 11 8 5 4 4 8 10 14 17 19 21 21 20 21 21 21 23 25 27 32 37 39 39 49 48 49 42 47 49 50 46 44 42 44 48 48
44 43 41 41 38 37 28 20 10 8 5 6 6 4 4 6 11 14 14 17 17 17 18 19 21 25 29 29 27 34 38 42 45 48 44 48 47 41 36 36 37 45 46
42 42 40 36 38 35 33 30 25 20 17 16 14 13 15 14 12 9 10 12 13 14 15 15 16 19 20 21 22 25 29 44 50 41 45 45 43 45 25 30 33 32 35
Wind_Direction
216 215 216 217 217 215 213 218 219 214 210 207 205 219 209 217 221 227 249 251 235 228 227 231 231 240 242 236 232 235 238 237 240 243 226 201 193 190 186 184 183 180 178
212 206 216 214 217 213 213 213 216 218 214 213 214 218 217 215 223 232 244 255 243 236 241 239 242 245 253 246 231 231 232 235 236 237 218 203 196 195 191 188 187 184 178
219 219 205 212 218 218 218 214 216 222 221 223 220 224 218 222 218 229 225 256 258 248 247 245 248 254 261 235 231 230 232 229 222 218 210 208 200 199 197 193 191 188 184
212 223 225 205 212 217 223 216 214 217 224 221 222 220 230 228 222 227 229 224 246 264 245 234 242 251 269 257 243 243 229 222 213 210 211 207 206 201 201 198 194 193 190
229 216 229 226 207 213 226 219 216 219 218 219 222 230 227 227 235 231 233 234 231 233 256 241 232 238 268 256 228 245 244 229 213 214 210 207 206 206 204 203 199 199 195
234 228 220 230 227 210 218 220 217 219 218 216 220 223 234 236 231 235 239 245 237 237 233 239 233 256 266 269 232 237 252 233 216 216 213 208 208 210 207 207 204 202 201
227 229 217 230 234 232 227 225 216 217 217 217 215 223 229 235 243 234 237 237 242 238 252 246 252 257 269 259 240 241 233 241 224 217 217 217 211 211 210 208 208 207 205
221 225 222 213 231 235 231 227 222 216 219 216 215 218 224 232 236 238 235 236 237 236 249 250 254 262 262 263 250 248 245 236 233 223 220 222 219 213 215 212 210 211 210
222 226 225 222 218 236 233 225 228 218 222 217 215 205 212 233 240 240 242 240 245 250 246 257 256 258 257 261 247 251 222 229 233 229 222 223 220 221 216 216 212 213 214
222 226 227 223 220 234 234 236 232 227 222 223 222 227 221 228 232 226 222 237 238 241 248 254 267 265 261 254 240 231 224 234 231 229 226 225 224 224 223 219 217 216 217
227 225 226 222 223 231 236 236 233 229 227 226 230 225 230 231 242 248 244 219 232 239 247 258 258 254 257 247 243 239 234 230 231 227 227 226 226 225 225 227 223 220 219
226 228 227 225 224 229 231 234 238 233 228 230 233 227 226 224 232 237 244 250 249 246 253 247 257 263 252 250 247 250 235 231 231 229 225 224 226 227 225 230 227 223 222
230 232 224 223 225 227 232 234 234 234 229 231 226 240 231 233 231 238 241 247 253 253 251 250 256 263 257 260 257 252 242 233 228 230 228 224 226 226 226 230 232 229 225
232 233 235 227 223 228 233 234 234 235 233 233 232 230 232 229 230 230 243 246 253 249 245 250 269 273 273 266 270 246 255 234 224 225 230 227 227 229 227 229 232 234 232
231 231 237 239 230 223 227 233 233 235 234 233 234 230 238 237 236 242 237 244 246 256 249 255 253 259 275 276 265 260 254 247 239 229 228 230 229 230 229 227 230 231 232
234 230 236 239 232 224 222 226 230 232 233 230 232 237 232 235 238 243 241 243 244 249 259 260 269 270 267 273 275 260 262 253 234 221 226 231 231 230 231 228 230 231 231
228 227 230 240 235 226 222 225 230 230 229 229 234 230 232 234 245 248 251 252 254 258 264 273 269 260 255 264 269 268 263 250 236 235 234 234 233 233 232 231 230 232 232
227 226 226 222 223 228 228 222 223 225 229 229 233 237 236 241 246 250 253 256 259 263 266 264 266 266 260 264 270 271 269 257 248 247 241 235 235 235 233 231 232 232 233
226 224 217 212 215 223 224 228 228 230 227 229 235 237 238 243 248 253 249 258 261 265 257 263 267 268 264 252 272 269 264 257 257 252 247 240 236 236 234 232 232 232 233
207 222 218 211 206 211 212 211 216 214 225 224 222 224 234 231 235 236 245 251 259 268 269 265 259 270 275 269 264 259 261 259 254 251 247 242 238 232 235 234 232 232 233
142 146 159 172 176 183 187 194 195 197 199 205 207 207 217 223 236 248 255 259 261 259 262 271 271 269 262 262 244 252 252 263 257 253 247 235 229 226 228 230 230 232 233
108 116 126 145 165 167 168 169 178 189 207 214 213 219 236 244 253 256 259 267 269 271 269 267 265 270 268 265 251 251 258 240 235 245 245 239 230 230 230 232 230 231 233
78 81 83 92 120 144 162 175 184 200 201 213 216 224 239 244 252 259 265 267 272 272 272 271 266 264 258 261 262 255 250 241 246 245 238 231 229 223 228 230 229 231 233
65 66 64 64 74 77 88 119 146 143 181 185 206 231 243 250 259 262 268 272 274 281 276 266 267 272 271 267 261 248 250 252 242 236 236 222 219 221 225 224 226 226 231
64 63 65 61 63 62 61 58 73 74 74 44 38 3 333 298 280 277 275 279 284 282 283 284 281 275 274 270 263 255 253 232 228 228 224 225 218 211 210 212 213 221 230
62 60 62 62 61 62 57 54 56 56 48 45 47 40 31 21 358 338 301 286 288 290 294 295 303 300 293 278 274 269 262 239 232 224 221 215 215 206 181 198 203 202 208